Temp
71 70 70 69 69 70 68 68 67 69 68 68 68 68 69 70 70 70 71 70 70 70 69 69 70 70 71 69 69 69 69 68 68 68 68 68 68 68 68 68 66 66
70 71 71 70 69 70 69 69 68 68 68 68 69 68 69 70 70 71 70 69 70 70 70 69 69 70 70 70 68 68 68 68 68 69 68 68 68 68 68 69 67 67
70 70 70 69 69 69 69 69 68 68 68 68 68 68 69 70 70 70 69 70 70 70 69 69 69 69 69 69 68 69 70 68 68 69 69 68 69 68 69 70 69 68
70 70 70 70 69 69 68 68 67 68 68 67 68 69 70 71 70 69 68 71 69 70 70 68 69 69 69 69 68 68 68 68 69 68 68 68 68 69 69 69 69 69
70 70 70 70 69 69 68 68 68 67 68 69 68 69 70 70 69 69 68 69 68 69 68 69 68 69 68 68 68 68 68 68 68 67 67 67 68 68 69 68 68 68
70 70 70 69 69 68 68 68 68 68 68 68 68 69 69 69 69 69 68 68 68 69 69 68 69 69 68 68 67 67 68 68 68 67 67 67 68 69 68 68 68 67
70 70 70 70 69 68 68 68 68 69 68 69 69 68 68 68 68 68 68 68 68 68 69 69 68 69 68 67 67 67 67 67 67 67 67 67 68 68 68 68 67 67
71 71 71 69 69 68 69 68 69 69 69 68 68 68 68 69 68 69 69 68 68 68 68 68 68 68 68 67 67 67 67 67 67 67 67 67 67 67 68 68 68 67
71 70 70 69 69 68 70 70 69 69 69 68 69 69 68 68 69 68 68 68 68 68 67 68 68 68 68 67 67 67 67 67 67 67 67 67 67 67 67 67 66 66
70 70 70 70 70 70 70 70 70 69 69 68 69 69 68 68 68 68 68 67 68 68 67 68 67 67 67 67 67 67 67 67 67 67 67 67 67 67 67 66 66 66
70 71 69 69 70 70 70 70 70 70 69 69 69 68 69 68 68 68 67 67 68 68 68 67 68 67 67 67 67 67 67 67 67 67 67 67 67 67 67 67 66 66
71 69 68 68 69 69 70 69 69 68 68 69 69 69 69 69 68 68 68 67 68 68 68 68 68 68 67 68 68 67 66 66 67 67 67 67 66 66 66 66 66 66
70 68 67 68 68 67 67 67 68 68 69 70 70 71 70 69 68 67 68 68 68 68 68 68 68 68 67 67 67 66 66 66 66 66 66 66 66 66 67 66 66 66
69 67 67 67 68 68 68 69 68 68 68 69 70 70 71 70 69 68 68 69 69 68 68 68 68 67 67 66 66 66 66 66 66 66 66 66 66 66 66 66 66 66
68 67 68 70 70 68 68 67 67 67 68 68 69 70 71 71 71 70 68 67 67 67 68 68 67 67 67 67 66 66 66 66 66 66 66 66 66 66 65 65 66 66
67 67 68 68 67 67 66 67 67 66 67 68 68 69 70 70 69 69 69 68 67 67 67 67 67 67 67 66 67 68 67 67 67 66 66 66 66 66 66 65 65 66
66 67 68 67 67 66 66 66 67 66 66 67 68 68 69 69 69 68 68 69 68 68 67 67 67 68 65 64 64 66 69 68 67 67 66 66 66 66 66 67 66 66
66 66 66 67 66 66 66 66 67 67 67 68 68 68 68 68 68 68 68 68 68 68 68 68 68 66 63 63 64 64 66 69 68 67 67 66 66 66 66 66 66 66
67 66 66 66 66 66 66 66 67 67 67 68 68 69 69 67 67 68 68 68 68 68 68 69 70 66 63 63 64 64 64 66 69 68 67 66 66 65 65 65 65 64
67 67 67 67 66 66 66 66 66 67 68 69 70 69 68 68 68 68 68 67 68 68 68 70 69 66 63 62 62 62 63 65 68 67 67 67 66 65 65 64 64 63
67 67 66 66 66 66 66 66 66 67 68 69 70 69 69 68 68 68 68 68 69 69 69 69 71 64 61 61 60 60 61 63 66 67 66 65 65 65 64 64 63 63
67 67 67 66 66 66 66 66 66 67 67 68 69 69 70 69 69 69 69 69 69 69 69 69 71 63 61 60 59 59 60 65 65 65 65 65 64 63 63 63 63 62
68 67 66 66 65 66 66 66 66 67 68 69 69 69 69 68 69 69 69 70 69 69 68 68 69 65 59 57 57 58 60 65 64 64 64 63 63 63 62 63 62 63
67 67 66 66 66 66 66 67 69 69 69 70 69 69 69 70 70 69 69 69 70 69 69 68 69 65 59 56 56 57 60 64 63 63 63 62 63 62 61 61 61 63
68 67 67 67 66 66 68 67 68 69 70 70 70 70 70 69 69 68 68 68 69 69 67 69 69 66 58 57 56 55 60 64 63 62 62 62 62 61 59 60 60 62
69 68 67 67 66 67 68 68 70 70 70 70 69 69 69 68 67 68 67 68 67 68 68 68 68 67 64 55 54 52 57 63 62 62 62 62 59 59 61 61 61 60
MSLP
1014.22 1014.50 1014.78 1015.06 1015.22 1015.30 1015.62 1015.90 1016.14 1016.38 1016.70 1016.94 1017.22 1017.38 1017.46 1017.30 1017.34 1017.42 1017.50 1017.62 1017.70 1017.82 1017.94 1017.98 1018.02 1018.10 1018.10 1018.14 1018.18 1018.26 1018.30 1018.30 1018.30 1018.30 1018.34 1018.42 1018.46 1018.46 1018.54 1018.54 1018.70 1018.74
1014.10 1014.22 1014.38 1014.62 1014.94 1015.10 1015.34 1015.38 1015.78 1016.06 1016.46 1016.70 1016.82 1016.98 1017.10 1017.18 1017.26 1017.22 1017.46 1017.58 1017.62 1017.70 1017.74 1017.86 1017.90 1017.94 1017.98 1018.06 1018.18 1018.26 1018.30 1018.26 1018.26 1018.18 1018.30 1018.34 1018.26 1018.34 1018.34 1018.34 1018.42 1018.54
1013.90 1014.14 1014.26 1014.46 1014.62 1014.90 1015.22 1015.46 1015.66 1015.94 1016.22 1016.38 1016.50 1016.66 1016.86 1016.98 1017.10 1017.22 1017.34 1017.42 1017.54 1017.58 1017.70 1017.74 1017.82 1017.86 1017.94 1017.94 1018.10 1018.14 1018.18 1018.26 1018.22 1018.14 1018.22 1018.14 1018.10 1018.18 1018.10 1018.10 1018.22 1018.34
1013.82 1013.94 1014.06 1014.22 1014.46 1014.82 1015.18 1015.50 1015.78 1015.94 1016.14 1016.46 1016.58 1016.54 1016.62 1016.78 1016.90 1017.14 1017.30 1017.38 1017.46 1017.50 1017.54 1017.62 1017.70 1017.78 1017.90 1017.94 1018.02 1018.06 1018.06 1018.14 1018.06 1018.10 1018.18 1018.14 1018.06 1018.06 1018.06 1018.06 1018.10 1018.18
1013.98 1014.22 1014.26 1014.38 1014.62 1014.98 1015.30 1015.54 1015.78 1015.94 1016.10 1016.26 1016.46 1016.54 1016.58 1016.70 1016.90 1017.02 1017.22 1017.34 1017.38 1017.38 1017.42 1017.50 1017.62 1017.74 1017.82 1017.86 1017.90 1017.98 1017.98 1018.02 1017.98 1018.18 1018.26 1018.14 1017.98 1018.02 1017.86 1017.94 1018.02 1018.06
1013.54 1013.46 1013.66 1013.98 1014.38 1014.86 1015.34 1015.62 1015.82 1015.90 1016.02 1016.26 1016.30 1016.34 1016.42 1016.50 1016.66 1016.78 1016.94 1017.10 1017.22 1017.30 1017.34 1017.38 1017.50 1017.58 1017.70 1017.74 1017.86 1017.86 1017.86 1017.94 1017.94 1018.14 1018.22 1018.14 1017.90 1017.78 1017.78 1017.82 1017.94 1017.98
1013.50 1013.34 1013.34 1013.62 1014.18 1014.58 1015.02 1015.50 1015.62 1015.78 1015.94 1015.86 1016.02 1016.14 1016.22 1016.42 1016.54 1016.58 1016.66 1016.82 1016.98 1017.10 1017.18 1017.22 1017.34 1017.46 1017.54 1017.66 1017.74 1017.74 1017.78 1017.82 1017.90 1018.06 1018.14 1018.02 1017.94 1017.78 1017.70 1017.74 1017.78 1017.78
1012.74 1012.74 1012.98 1013.66 1014.34 1014.78 1014.98 1015.14 1015.22 1015.70 1015.98 1016.10 1016.10 1016.06 1016.14 1016.26 1016.38 1016.42 1016.50 1016.66 1016.82 1016.94 1017.02 1017.06 1017.14 1017.26 1017.34 1017.50 1017.62 1017.62 1017.62 1017.70 1017.78 1017.86 1017.98 1017.94 1017.90 1017.86 1017.62 1017.62 1017.62 1017.66
1012.10 1012.34 1013.02 1013.78 1014.50 1015.50 1015.42 1015.58 1015.54 1015.74 1015.86 1016.02 1016.18 1016.18 1016.22 1016.26 1016.34 1016.42 1016.50 1016.58 1016.70 1016.78 1016.86 1016.94 1017.02 1017.06 1017.18 1017.38 1017.46 1017.46 1017.46 1017.50 1017.54 1017.70 1017.78 1017.82 1017.82 1017.66 1017.54 1017.54 1017.66 1017.58
1011.42 1011.82 1012.70 1013.54 1014.18 1014.62 1015.30 1015.62 1015.50 1015.42 1015.62 1015.90 1015.98 1016.10 1016.26 1016.30 1016.38 1016.38 1016.46 1016.54 1016.58 1016.66 1016.74 1016.78 1016.90 1016.98 1017.06 1017.18 1017.22 1017.26 1017.30 1017.30 1017.30 1017.42 1017.50 1017.54 1017.58 1017.50 1017.42 1017.50 1017.50 1017.50
1011.02 1011.74 1012.74 1013.62 1014.18 1014.42 1014.62 1014.58 1014.90 1015.30 1015.58 1015.78 1015.94 1016.10 1016.14 1016.22 1016.34 1016.34 1016.38 1016.42 1016.46 1016.46 1016.54 1016.62 1016.58 1016.66 1016.78 1016.90 1016.94 1016.98 1017.02 1017.02 1017.06 1017.10 1017.18 1017.22 1017.22 1017.22 1017.22 1017.30 1017.34 1017.26
1010.98 1012.22 1013.46 1014.10 1014.30 1013.98 1013.90 1014.26 1014.70 1015.14 1015.62 1015.66 1015.66 1015.86 1015.90 1016.02 1016.14 1016.18 1016.14 1016.14 1016.14 1016.14 1016.18 1016.22 1016.22 1016.30 1016.42 1016.46 1016.50 1016.62 1016.74 1016.78 1016.78 1016.82 1016.86 1016.90 1016.90 1016.94 1016.98 1017.06 1017.06 1016.94
1011.66 1012.98 1013.50 1013.50 1013.30 1013.30 1013.50 1013.78 1013.82 1014.10 1014.74 1015.18 1015.26 1015.46 1015.58 1015.74 1015.82 1015.94 1015.86 1015.82 1015.82 1015.86 1015.94 1015.94 1015.94 1015.98 1016.10 1016.18 1016.26 1016.38 1016.42 1016.50 1016.54 1016.58 1016.58 1016.62 1016.62 1016.62 1016.70 1016.82 1016.82 1016.74
1011.98 1012.82 1012.78 1012.02 1011.66 1011.50 1011.82 1012.18 1012.86 1013.70 1014.10 1014.42 1014.78 1015.02 1015.10 1015.22 1015.46 1015.62 1015.58 1015.54 1015.50 1015.58 1015.54 1015.58 1015.70 1015.78 1015.86 1015.98 1016.06 1016.14 1016.22 1016.30 1016.30 1016.30 1016.30 1016.34 1016.38 1016.42 1016.50 1016.54 1016.54 1016.50
1011.34 1011.26 1010.70 1010.66 1010.90 1011.62 1012.10 1012.62 1013.26 1013.82 1013.98 1014.14 1014.34 1014.50 1014.54 1014.66 1014.90 1015.10 1015.22 1015.30 1015.26 1015.30 1015.34 1015.42 1015.54 1015.54 1015.58 1015.66 1015.78 1015.90 1015.98 1015.98 1016.02 1016.06 1016.10 1016.14 1016.18 1016.22 1016.30 1016.34 1016.30 1016.18
1010.50 1010.54 1010.70 1010.86 1011.46 1011.58 1011.78 1012.18 1012.90 1013.42 1013.90 1014.10 1014.14 1014.18 1014.18 1014.22 1014.50 1014.66 1014.74 1014.82 1014.98 1015.10 1015.18 1015.26 1015.30 1015.22 1015.14 1015.18 1015.22 1015.34 1015.50 1015.66 1015.74 1015.82 1015.86 1015.90 1015.98 1016.02 1016.06 1016.06 1015.98 1015.86
1010.14 1010.42 1010.46 1010.66 1010.58 1010.86 1011.46 1012.46 1012.98 1013.06 1013.42 1013.66 1013.74 1013.78 1013.82 1013.86 1014.10 1014.34 1014.38 1014.46 1014.66 1014.78 1014.94 1014.98 1014.94 1014.86 1014.78 1014.82 1014.90 1014.98 1015.14 1015.30 1015.42 1015.46 1015.54 1015.66 1015.74 1015.86 1015.78 1015.70 1015.66 1015.54
1009.94 1010.18 1010.30 1010.54 1010.98 1011.14 1011.42 1012.34 1013.14 1013.38 1013.18 1013.14 1013.26 1013.42 1013.50 1013.62 1013.86 1013.90 1014.02 1014.22 1014.38 1014.50 1014.50 1014.46 1014.50 1014.38 1014.42 1014.50 1014.58 1014.66 1014.78 1014.86 1014.98 1015.14 1015.26 1015.38 1015.46 1015.50 1015.46 1015.42 1015.34 1015.26
1009.42 1009.90 1010.42 1010.82 1011.26 1011.82 1012.42 1012.66 1012.98 1013.10 1012.82 1012.70 1012.82 1012.86 1013.14 1013.50 1013.46 1013.62 1013.82 1013.94 1014.10 1014.18 1014.14 1014.06 1014.10 1014.02 1014.10 1014.10 1014.18 1014.26 1014.34 1014.54 1014.62 1014.74 1014.94 1015.02 1015.10 1015.14 1015.18 1015.14 1015.06 1015.02
1009.34 1009.82 1010.10 1010.34 1010.66 1011.06 1011.74 1012.14 1012.18 1012.22 1012.30 1012.26 1012.38 1012.70 1013.02 1013.10 1013.18 1013.30 1013.42 1013.62 1013.66 1013.70 1013.70 1013.66 1013.74 1013.58 1013.66 1013.70 1013.82 1013.90 1014.02 1014.30 1014.38 1014.46 1014.54 1014.58 1014.62 1014.70 1014.78 1014.82 1014.82 1014.78
1008.82 1009.02 1009.38 1009.90 1010.30 1010.78 1011.22 1011.70 1011.78 1011.90 1012.14 1012.06 1012.06 1012.26 1012.50 1012.62 1012.74 1012.90 1012.98 1013.06 1013.14 1013.22 1013.38 1013.38 1013.22 1013.14 1013.34 1013.46 1013.58 1013.70 1013.78 1014.10 1014.22 1014.30 1014.34 1014.34 1014.34 1014.42 1014.46 1014.46 1014.54 1014.54
1008.10 1008.66 1009.34 1009.86 1009.98 1010.06 1010.34 1011.02 1011.50 1011.62 1011.74 1011.58 1011.66 1011.82 1011.94 1012.14 1012.34 1012.30 1012.38 1012.50 1012.58 1012.82 1013.02 1013.06 1012.78 1012.86 1013.10 1013.22 1013.30 1013.42 1013.66 1013.98 1014.02 1014.10 1014.10 1014.06 1014.10 1014.18 1014.22 1014.30 1014.38 1014.42
1007.82 1008.74 1009.38 1009.62 1009.70 1010.22 1010.62 1010.86 1011.06 1011.30 1011.34 1011.22 1011.50 1011.62 1011.82 1011.98 1011.94 1011.82 1011.70 1011.94 1012.14 1012.42 1012.70 1012.70 1012.66 1012.66 1012.90 1012.98 1013.10 1013.30 1013.74 1013.78 1013.82 1013.86 1013.86 1013.90 1013.86 1013.94 1014.06 1014.14 1014.18 1014.26
1007.82 1008.34 1008.70 1008.94 1009.54 1010.62 1010.98 1010.74 1010.58 1010.70 1010.98 1011.10 1011.34 1011.38 1011.50 1011.42 1011.38 1011.46 1011.50 1011.58 1011.74 1012.02 1012.22 1012.50 1012.50 1012.38 1012.50 1012.70 1012.90 1013.06 1013.30 1013.54 1013.54 1013.62 1013.66 1013.70 1013.70 1013.86 1013.98 1014.02 1014.06 1014.10
1007.62 1008.14 1008.78 1009.26 1009.78 1009.90 1009.82 1010.34 1010.30 1010.22 1010.42 1010.82 1011.02 1011.06 1011.02 1010.94 1011.10 1011.26 1011.38 1011.50 1011.58 1011.82 1012.14 1012.30 1012.22 1012.10 1012.26 1012.22 1012.26 1012.38 1012.66 1013.02 1013.22 1013.42 1013.54 1013.50 1013.62 1013.78 1013.94 1013.94 1013.90 1013.90
1007.78 1008.50 1008.90 1009.10 1009.46 1009.02 1009.14 1009.62 1009.98 1010.18 1010.18 1010.38 1010.66 1010.82 1010.98 1011.14 1011.30 1011.38 1011.46 1011.54 1011.78 1011.98 1012.02 1012.02 1012.14 1012.26 1012.30 1012.42 1012.30 1012.18 1012.34 1012.54 1012.90 1013.22 1013.26 1013.30 1013.58 1013.66 1013.66 1013.74 1013.78 1013.78
Wind_Speed
9 9 9 9 9 9 10 9 7 8 7 6 7 7 7 7 6 7 7 6 6 6 6 6 5 5 4 4 4 4 4 4 3 3 4 4 4 5 5 5 5 5
10 10 8 8 8 7 8 9 9 8 8 8 8 7 6 5 7 7 7 7 6 6 6 6 6 6 5 4 4 4 3 3 4 3 4 5 5 5 5 6 6 5
9 9 10 11 10 10 9 7 8 8 8 9 8 7 7 6 7 6 6 6 6 6 6 6 5 5 4 4 4 3 3 3 4 3 4 5 4 4 5 4 4 6
8 9 9 9 7 9 7 7 6 6 6 6 7 7 7 6 6 7 6 5 6 6 6 5 5 4 4 4 3 3 4 4 5 2 3 3 4 4 4 4 4 4
8 6 5 5 5 5 6 7 8 7 7 7 6 5 5 6 6 6 5 5 5 5 4 5 5 5 4 4 4 4 4 4 4 2 3 4 4 3 4 3 5 6
8 8 8 8 8 8 7 7 6 7 6 6 7 6 6 6 6 6 6 5 5 5 5 5 5 5 5 5 4 4 4 4 4 2 4 5 6 4 3 3 4 5
9 9 10 9 9 9 8 6 6 6 7 7 5 6 6 6 6 6 6 6 6 5 5 5 5 6 5 4 4 5 4 5 4 4 5 6 5 6 4 4 4 5
12 10 9 8 8 7 8 7 7 6 5 4 6 6 6 6 6 6 5 6 5 6 6 6 6 6 6 4 5 5 5 3 4 5 5 6 5 6 6 4 4 5
13 12 9 10 11 5 5 4 4 4 5 6 5 5 4 5 6 6 6 5 6 6 6 6 6 6 5 5 5 6 6 5 5 5 6 6 6 7 7 4 4 5
15 13 12 12 12 11 8 5 5 6 4 4 5 5 6 5 5 5 5 6 6 6 6 6 6 6 6 5 6 6 6 6 6 5 6 6 6 7 6 5 6 6
16 13 12 11 10 9 8 9 8 5 4 5 5 6 6 5 5 5 6 6 7 7 7 7 7 7 6 6 6 6 6 6 6 6 6 7 7 7 5 6 6 7
15 10 11 12 10 11 11 7 6 4 4 7 7 8 7 7 7 6 7 8 7 8 7 8 7 6 7 7 7 6 6 6 6 6 7 7 6 6 6 6 7 7
10 11 14 13 13 11 8 7 8 10 9 9 8 8 9 8 8 8 7 7 8 7 8 8 8 7 7 7 7 6 6 7 7 7 7 6 6 7 6 6 6 6
11 15 16 16 15 15 14 14 10 8 8 8 8 10 10 10 9 9 8 7 8 8 8 7 7 7 7 7 7 7 6 7 7 7 7 6 6 6 6 6 6 6
13 16 18 19 16 11 9 5 3 6 7 9 9 10 9 9 9 9 8 8 8 8 8 7 7 7 7 7 7 7 7 7 7 7 7 7 6 6 6 5 5 5
15 16 16 15 13 13 11 9 9 10 9 9 10 10 10 9 8 9 9 9 9 8 7 6 7 6 8 13 10 7 7 6 6 7 7 7 7 6 6 6 6 6
14 15 15 16 16 12 10 8 12 10 9 10 10 10 10 9 9 9 9 8 8 8 8 7 7 7 12 12 12 13 8 7 7 7 6 6 7 7 8 6 5 6
14 15 15 14 11 11 11 11 9 10 10 11 10 11 10 8 9 9 9 8 7 8 8 8 8 10 13 13 13 14 12 9 7 7 6 7 7 8 7 6 6 5
15 15 13 11 10 10 10 10 11 12 11 11 12 11 8 9 10 8 8 8 8 9 9 8 8 11 14 14 14 14 15 12 7 7 7 7 7 8 7 7 5 5
14 14 14 14 14 12 10 12 14 13 11 10 9 7 9 9 9 9 9 8 9 9 9 9 9 11 14 15 14 14 14 10 6 8 8 8 8 7 7 7 6 5
16 17 17 16 14 12 11 12 12 11 10 10 9 10 10 11 11 10 10 9 9 9 8 9 9 13 13 13 13 13 13 9 6 6 7 7 7 6 7 6 5 4
17 17 15 13 13 14 13 11 10 10 11 11 9 9 8 8 8 8 10 10 10 10 9 10 9 12 11 12 12 12 11 6 7 8 8 7 6 5 5 4 4 4
16 15 14 14 15 12 10 11 11 11 12 9 9 9 9 9 10 10 10 10 10 9 10 10 9 9 9 11 12 11 5 5 6 5 5 5 5 5 4 3 3 3
15 16 17 17 12 7 8 10 10 9 9 7 9 10 10 11 10 9 8 9 10 10 9 8 7 8 10 9 9 8 8 6 5 5 4 4 4 2 1 2 3 6
14 14 12 10 7 9 9 9 10 11 7 5 8 8 9 8 7 7 7 7 8 6 7 8 7 5 4 6 9 10 8 5 5 4 4 5 3 2 2 2 2 2
10 10 9 10 10 11 7 7 5 3 5 7 6 6 6 4 4 5 7 5 3 4 5 6 6 3 2 4 7 9 10 7 5 5 6 5 2 2 2 2 1 2
Wind_Direction
182 180 181 181 182 180 174 172 175 165 174 172 177 189 186 195 184 175 184 181 186 192 201 204 202 207 211 199 198 192 195 203 208 206 208 207 224 211 217 215 210 216
186 182 179 174 175 179 179 173 168 168 173 177 187 184 196 174 188 175 179 187 192 201 204 203 201 205 204 199 192 195 206 210 231 191 204 215 220 202 221 217 211 217
181 179 176 176 178 177 175 174 167 171 171 184 183 180 178 184 172 184 182 187 192 200 202 206 204 219 218 207 183 204 217 213 252 216 214 229 223 216 229 221 223 207
182 182 182 181 172 170 165 161 172 169 166 165 184 181 172 174 172 177 192 195 190 198 202 197 210 219 225 226 189 214 222 232 242 226 231 262 247 233 244 229 232 230
170 188 188 170 162 152 155 166 169 170 167 176 171 169 166 166 172 184 189 199 197 202 199 210 215 227 228 227 206 223 229 238 247 214 239 262 258 227 246 225 229 239
176 184 174 168 164 157 165 171 167 161 162 159 179 170 178 178 178 186 188 194 206 208 208 211 216 232 221 224 200 224 230 237 242 194 231 247 264 249 246 235 231 238
187 182 179 168 156 158 156 158 153 164 175 182 160 181 175 181 189 192 189 196 200 209 207 207 213 227 221 214 211 230 236 238 247 221 239 253 250 271 250 239 234 241
192 191 178 151 144 145 150 163 162 167 179 164 181 192 179 190 197 200 196 195 200 212 213 212 214 223 224 206 220 229 245 204 240 243 243 256 256 260 260 238 239 244
192 188 158 140 128 123 164 159 139 161 177 177 195 199 200 198 202 200 202 201 208 212 211 213 216 224 223 205 221 224 237 241 228 233 237 249 250 252 256 250 242 242
192 182 158 142 146 155 143 125 168 182 174 191 205 202 198 214 212 207 204 205 210 212 212 216 218 224 224 215 220 217 224 238 241 230 233 239 241 248 251 233 236 244
190 177 149 131 126 122 145 173 179 158 160 204 213 213 214 209 220 209 209 207 208 210 213 217 220 217 221 224 224 213 219 228 242 244 237 233 234 239 242 236 235 236
186 148 113 111 134 161 172 162 129 136 205 223 213 214 212 214 216 212 207 208 211 213 214 220 221 218 221 232 233 221 219 225 233 234 235 230 232 234 235 231 237 242
159 111 117 143 163 165 155 156 177 190 200 215 212 213 211 212 217 215 217 211 216 214 218 221 222 220 222 229 232 227 221 224 229 229 231 228 227 229 234 231 236 241
136 123 153 168 181 175 172 180 177 186 199 207 210 212 213 211 212 211 217 213 217 215 221 219 221 224 227 228 228 225 218 222 225 227 229 232 233 232 230 231 230 236
142 156 170 177 179 162 157 139 131 225 214 213 214 217 213 210 210 209 213 218 223 220 222 218 216 223 222 218 221 226 216 222 222 223 226 231 235 232 230 231 234 232
160 169 172 175 164 170 162 165 198 212 218 221 220 218 215 207 206 209 212 214 217 221 222 217 218 222 223 218 214 218 215 220 223 226 223 225 230 239 236 227 231 229
162 169 172 175 181 167 139 200 222 217 208 218 221 218 214 208 203 209 213 216 215 216 216 216 219 221 223 221 222 224 223 222 223 231 218 218 219 225 240 234 228 230
166 169 177 176 168 166 164 204 221 224 215 214 219 220 218 207 208 211 212 213 214 217 218 217 219 224 223 224 224 225 223 225 225 228 220 214 215 217 225 228 232 237
168 169 167 157 155 156 193 204 217 226 225 216 219 221 215 212 215 209 216 214 214 217 221 222 224 224 222 225 226 227 226 223 232 222 218 216 212 214 219 220 218 229
163 164 169 166 170 177 189 206 215 223 226 225 222 219 218 221 216 213 216 216 216 217 222 224 226 228 222 224 228 230 233 225 229 222 223 223 213 208 208 211 208 206
171 173 172 170 170 183 198 214 215 218 224 223 216 214 215 216 213 211 216 217 218 216 220 227 232 229 224 226 231 233 236 223 226 223 226 227 217 205 209 208 200 193
176 175 169 170 177 202 198 205 214 217 222 221 215 217 220 219 219 211 215 217 217 215 216 232 238 231 224 226 228 232 227 213 209 216 221 220 214 204 208 205 200 195
175 164 163 172 188 206 197 204 209 217 226 220 214 215 214 214 216 214 214 215 217 213 216 231 242 237 224 231 234 235 210 212 202 210 213 216 220 211 201 207 201 199
166 166 172 181 185 181 208 218 212 218 225 214 215 213 215 217 217 218 217 216 217 216 206 213 235 240 231 236 236 221 197 211 202 191 212 214 224 196 188 220 227 224
169 172 171 170 164 206 201 213 215 212 207 200 223 224 228 225 220 217 222 221 217 206 186 200 226 232 169 197 199 184 174 183 171 190 206 222 212 213 223 224 237 238
161 155 153 157 195 216 194 206 234 212 191 197 212 215 232 241 217 228 232 234 181 187 197 214 223 251 287 225 178 161 168 155 149 163 210 210 171 200 243 213 228 277